Homer, AK

12:04 AM AKDT on August 24, 2017 (GMT -0800)
Homer

Weather History for PAHO - February, 2013

Change the Weather History Date:

Thursday, February 21, 2013

  Actual Average Record
Temperature  
Mean Temperature 27 °F -  
Max Temperature 30 °F 31 °F 52 °F (2015)
Min Temperature 24 °F 18 °F -3 °F (1956)
Degree Days  
Heating Degree Days 38    
Moisture  
Dew Point 22 °F    
Average Humidity 78    
Maximum Humidity 89    
Minimum Humidity 69    
Precipitation  
Precipitation 0.00 in - - ()
Sea Level Pressure  
Sea Level Pressure 29.19 in    
Wind  
Wind Speed 4 mph (West)    
Max Wind Speed 18 mph    
Max Gust Speed 24 mph    
Visibility 10 miles    
Events      
Averages and records for this station are not official NWS values.
T = Trace of Precipitation, MM = Missing Value Source: NWS Daily Summary

Daily Weather History Graph

Daily Weather History Graph

Search for Another Location

Airport or City:

Trip Planner

Search our weather history database for the weather conditions in past years. The results will help you decide how hot, cold, wet, or windy it might be!

Date:

Astronomy

Feb. 21, 2013 Rise Set
Actual Time 8:24 AM AKST 6:15 PM AKST
Civil Twilight 7:42 AM AKST 6:57 PM AKST
Nautical Twilight 6:54 AM AKST 7:45 PM AKST
Astronomical Twilight 6:07 AM AKST 8:33 PM AKST
Moon 1:59 PM AKST (2/21) 6:18 AM AKST (2/21)
Length of Visible Light 11h 14m
Length of Day
9h 50m
Waxing Gibbous, 85% of the Moon is Illuminated
Feb 21
Waxing Gibbous
Feb 25
Full
Mar 4
Last Quarter
Mar 11
New
Mar 19
First Quarter

Hourly Weather History & Observations

Time (AKST) Temp. Windchill Dew Point Humidity Pressure Visibility Wind Dir Wind Speed Gust Speed Precip Events Conditions
12:21 AM 28.4 °F 24.6 °F 24.8 °F 86% 29.25 in 10.0 mi NE 3.5 mph - N/A   Overcast
12:32 AM 28.4 °F 24.6 °F 24.8 °F 86% 29.25 in 10.0 mi NNE 3.5 mph - N/A   Overcast
12:53 AM 28.9 °F - 26.1 °F 89% 29.26 in 10.0 mi Calm Calm - N/A   Overcast
1:53 AM 30.0 °F 19.5 °F 24.1 °F 79% 29.26 in 10.0 mi SW 13.8 mph 17.3 mph N/A   Overcast
3:53 AM 28.0 °F 22.8 °F 21.0 °F 75% 29.24 in 10.0 mi West 4.6 mph - N/A   Scattered Clouds
4:53 AM 24.1 °F 19.7 °F 19.9 °F 84% 29.22 in 10.0 mi Variable 3.5 mph - N/A   Scattered Clouds
5:53 AM 25.0 °F - 19.9 °F 81% 29.21 in 10.0 mi Calm Calm - N/A   Partly Cloudy
6:27 AM 26.6 °F 21.2 °F 21.2 °F 80% 29.20 in 10.0 mi NW 4.6 mph - N/A   Mostly Cloudy
6:53 AM 26.1 °F 21.9 °F 21.0 °F 81% 29.20 in 10.0 mi WNW 3.5 mph - N/A   Mostly Cloudy
7:53 AM 26.1 °F - 21.9 °F 84% 29.18 in 10.0 mi Calm Calm - N/A   Overcast
8:53 AM 27.0 °F - 21.9 °F 81% 29.17 in 10.0 mi Calm Calm - N/A   Overcast
9:53 AM 28.0 °F 24.2 °F 23.0 °F 81% 29.16 in 10.0 mi ENE 3.5 mph - N/A   Overcast
10:53 AM 30.0 °F 26.5 °F 24.1 °F 79% 29.16 in 10.0 mi NE 3.5 mph - N/A   Overcast
11:53 AM 30.0 °F 26.5 °F 23.0 °F 75% 29.15 in 10.0 mi East 3.5 mph - N/A   Overcast
12:53 PM 30.0 °F 26.5 °F 21.9 °F 72% 29.14 in 10.0 mi SE 3.5 mph - N/A   Overcast
1:53 PM 30.0 °F - 21.9 °F 72% 29.13 in 10.0 mi Calm Calm - N/A   Overcast
2:53 PM 30.0 °F - 24.1 °F 79% 29.13 in 10.0 mi Calm Calm - N/A   Overcast
3:53 PM 30.0 °F - 24.1 °F 79% 29.13 in 10.0 mi Calm Calm - N/A   Overcast
4:53 PM 30.9 °F - 24.1 °F 76% 29.13 in 10.0 mi Calm Calm - N/A   Overcast
5:53 PM 30.0 °F - 24.1 °F 79% 29.14 in 10.0 mi Calm Calm - N/A   Overcast
6:53 PM 30.0 °F 25.2 °F 24.1 °F 79% 29.15 in 10.0 mi WNW 4.6 mph - N/A   Overcast
7:53 PM 30.0 °F - 24.1 °F 79% 29.17 in 10.0 mi Calm Calm - N/A   Overcast
8:25 PM 30.2 °F 25.4 °F 24.8 °F 80% 29.18 in 10.0 mi NW 4.6 mph - N/A   Overcast
8:53 PM 30.0 °F 21.1 °F 23.0 °F 75% 29.20 in 10.0 mi WSW 10.4 mph 16.1 mph 0.00 in   Overcast
9:53 PM 28.0 °F 17.0 °F 19.9 °F 72% 29.22 in 8.0 mi WSW 13.8 mph 18.4 mph 0.00 in   Overcast
10:53 PM 26.1 °F 12.7 °F 18.0 °F 71% 29.24 in 10.0 mi SW 18.4 mph 24.2 mph N/A   Overcast
11:33 PM 26.6 °F 13.4 °F 17.6 °F 69% 29.24 in 10.0 mi SW 18.4 mph - N/A   Overcast
11:53 PM 26.1 °F 13.1 °F 18.0 °F 71% 29.25 in 10.0 mi WSW 17.3 mph 24.2 mph N/A   Overcast